TimeCDT,TemperatureF,Dew PointF,Humidity,Sea Level PressureIn,VisibilityMPH,Wind Direction,Wind SpeedMPH,Gust SpeedMPH,PrecipitationIn,Events,Conditions,WindDirDegrees,DateUTC
12:15 AM,27.0,27.0,100,30.08,3.0,NW,13.8,17.3,N/A,Snow,Light Snow,320,2013-03-25 05:15:00
12:35 AM,27.1,27.1,100,30.09,4.0,NW,11.5,18.4,N/A,Snow,Light Snow,320,2013-03-25 05:35:00
12:55 AM,27.3,27.3,100,30.09,5.0,NNW,11.5,18.4,N/A,Snow,Light Snow,330,2013-03-25 05:55:00
1:15 AM,27.3,27.3,100,30.09,5.0,NW,10.4,16.1,N/A,Snow,Light Snow,320,2013-03-25 06:15:00
1:35 AM,27.3,27.3,100,30.09,5.0,NW,8.1,-,N/A,Snow,Light Snow,320,2013-03-25 06:35:00
1:55 AM,27.5,27.5,100,30.09,3.0,NW,9.2,-,N/A,Snow,Light Snow,320,2013-03-25 06:55:00
2:15 AM,27.5,27.5,100,30.09,4.0,NW,8.1,-,N/A,Snow,Light Snow,320,2013-03-25 07:15:00
2:35 AM,27.5,27.5,100,30.09,4.0,NW,11.5,17.3,N/A,Snow,Light Snow,320,2013-03-25 07:35:00
2:55 AM,28.0,28.0,100,30.09,5.0,NNW,10.4,21.9,N/A,,Overcast,330,2013-03-25 07:55:00
3:15 AM,27.5,27.5,100,30.10,3.0,NNW,9.2,17.3,N/A,Snow,Light Snow,340,2013-03-25 08:15:00
3:35 AM,27.3,27.3,100,30.10,2.5,NNW,9.2,-,N/A,Snow,Light Snow,330,2013-03-25 08:35:00
3:55 AM,26.6,26.6,100,30.10,4.0,NNW,12.7,19.6,N/A,Snow,Light Snow,330,2013-03-25 08:55:00
4:15 AM,26.4,26.4,100,30.11,4.0,NNW,15.0,21.9,N/A,Snow,Light Snow,330,2013-03-25 09:15:00
4:35 AM,26.4,26.4,100,30.11,5.0,NNW,12.7,21.9,N/A,Snow,Light Snow,330,2013-03-25 09:35:00
4:55 AM,26.4,26.4,100,30.12,5.0,NW,16.1,23.0,N/A,Snow,Light Snow,320,2013-03-25 09:55:00
5:15 AM,26.6,26.6,100,30.12,7.0,NW,17.3,26.5,N/A,,Overcast,320,2013-03-25 10:15:00
5:35 AM,26.2,26.2,100,30.13,4.0,NW,17.3,23.0,N/A,Snow,Light Snow,320,2013-03-25 10:35:00
5:55 AM,26.4,26.4,100,30.13,10.0,NW,17.3,26.5,N/A,,Overcast,320,2013-03-25 10:55:00
6:15 AM,26.1,26.1,100,30.13,10.0,NW,15.0,23.0,N/A,,Overcast,320,2013-03-25 11:15:00
6:35 AM,25.7,25.7,100,30.14,10.0,NW,12.7,21.9,N/A,,Overcast,320,2013-03-25 11:35:00
6:55 AM,25.7,25.7,100,30.15,10.0,NW,15.0,23.0,N/A,,Overcast,320,2013-03-25 11:55:00
7:15 AM,25.7,25.7,100,30.15,10.0,NW,18.4,26.5,N/A,,Overcast,320,2013-03-25 12:15:00
7:35 AM,25.5,25.5,100,30.16,5.0,NW,12.7,24.2,N/A,,Overcast,320,2013-03-25 12:35:00
7:55 AM,25.2,25.2,100,30.17,3.0,NW,16.1,23.0,N/A,,Overcast,320,2013-03-25 12:55:00
8:15 AM,25.2,25.2,100,30.17,4.0,NW,13.8,18.4,N/A,,Overcast,320,2013-03-25 13:15:00
8:35 AM,25.3,25.3,100,30.18,2.0,NW,11.5,19.6,N/A,Snow,Light Snow,320,2013-03-25 13:35:00
8:55 AM,25.5,25.5,100,30.18,2.5,NW,13.8,21.9,N/A,Snow,Light Snow,320,2013-03-25 13:55:00
9:15 AM,25.7,25.7,100,30.19,2.0,NW,11.5,20.7,N/A,Snow,Light Snow,320,2013-03-25 14:15:00
9:35 AM,25.7,25.7,100,30.19,2.5,NW,17.3,23.0,N/A,Snow,Light Snow,320,2013-03-25 14:35:00
9:55 AM,26.1,26.1,100,30.20,2.5,NW,13.8,23.0,N/A,,Overcast,320,2013-03-25 14:55:00
10:15 AM,26.1,26.1,100,30.21,1.8,NW,12.7,21.9,N/A,Snow,Light Snow,320,2013-03-25 15:15:00
10:35 AM,26.6,26.6,100,30.21,1.8,NW,13.8,21.9,N/A,Snow,Light Snow,320,2013-03-25 15:35:00
10:55 AM,27.1,27.1,100,30.22,2.0,NNW,15.0,21.9,N/A,,Overcast,330,2013-03-25 15:55:00
11:15 AM,27.5,27.5,100,30.22,3.0,NNW,11.5,21.9,N/A,,Overcast,330,2013-03-25 16:15:00
11:35 AM,27.5,27.5,100,30.23,2.5,NW,12.7,19.6,N/A,,Overcast,320,2013-03-25 16:35:00
11:55 AM,27.9,27.9,100,30.23,2.5,NNW,11.5,23.0,N/A,,Overcast,330,2013-03-25 16:55:00
12:15 PM,28.0,28.0,100,30.24,5.0,NW,11.5,19.6,N/A,,Overcast,320,2013-03-25 17:15:00
12:35 PM,28.6,28.6,100,30.24,10.0,NW,16.1,20.7,N/A,,Overcast,320,2013-03-25 17:35:00
12:55 PM,28.4,28.4,100,30.24,10.0,NNW,11.5,23.0,N/A,Snow,Light Snow,330,2013-03-25 17:55:00
1:15 PM,28.9,28.9,100,30.24,10.0,NW,15.0,18.4,N/A,Snow,Light Snow,320,2013-03-25 18:15:00
1:35 PM,29.3,29.3,100,30.24,10.0,NW,15.0,21.9,N/A,Snow,Light Snow,320,2013-03-25 18:35:00
1:55 PM,29.3,29.3,100,30.24,10.0,NW,13.8,19.6,N/A,,Overcast,320,2013-03-25 18:55:00
2:15 PM,29.7,29.7,100,30.24,10.0,NW,12.7,18.4,N/A,,Overcast,320,2013-03-25 19:15:00
2:35 PM,30.2,29.7,98,30.24,10.0,NNW,11.5,19.6,N/A,,Overcast,330,2013-03-25 19:35:00
2:55 PM,30.9,29.3,94,30.25,10.0,NNW,13.8,23.0,N/A,,Overcast,340,2013-03-25 19:55:00
3:15 PM,30.9,28.4,90,30.24,10.0,NW,16.1,21.9,N/A,,Mostly Cloudy,320,2013-03-25 20:15:00
3:35 PM,31.1,27.7,87,30.25,10.0,NW,15.0,24.2,N/A,,Mostly Cloudy,320,2013-03-25 20:35:00
3:55 PM,31.1,27.3,86,30.25,10.0,NW,16.1,25.3,N/A,,Mostly Cloudy,320,2013-03-25 20:55:00
4:15 PM,30.7,27.9,89,30.25,10.0,NW,16.1,19.6,N/A,,Mostly Cloudy,320,2013-03-25 21:15:00
4:35 PM,30.4,28.4,92,30.26,10.0,NW,15.0,23.0,N/A,,Overcast,320,2013-03-25 21:35:00
4:55 PM,30.2,28.9,95,30.26,10.0,NW,11.5,18.4,N/A,,Overcast,320,2013-03-25 21:55:00
5:15 PM,30.7,28.6,92,30.26,10.0,NW,17.3,23.0,N/A,,Overcast,320,2013-03-25 22:15:00
5:35 PM,30.0,29.3,97,30.26,10.0,NW,13.8,20.7,N/A,,Overcast,310,2013-03-25 22:35:00
5:55 PM,30.0,29.5,98,30.27,7.0,NNW,10.4,20.7,N/A,Snow,Light Snow,330,2013-03-25 22:55:00
6:15 PM,30.2,29.3,96,30.28,10.0,NW,11.5,-,N/A,,Overcast,320,2013-03-25 23:15:00
6:35 PM,30.0,29.3,97,30.29,10.0,NW,12.7,20.7,N/A,,Overcast,320,2013-03-25 23:35:00
6:55 PM,29.3,29.3,100,30.29,10.0,NW,12.7,-,N/A,,Overcast,320,2013-03-25 23:55:00
7:15 PM,29.1,29.1,100,30.30,10.0,NW,11.5,20.7,N/A,,Overcast,320,2013-03-26 00:15:00
7:35 PM,29.3,29.1,99,30.30,10.0,NW,12.7,17.3,N/A,,Overcast,320,2013-03-26 00:35:00
7:55 PM,29.1,29.1,100,30.30,10.0,NW,11.5,-,N/A,,Overcast,310,2013-03-26 00:55:00
8:15 PM,28.9,28.9,100,30.30,10.0,NW,9.2,-,N/A,,Overcast,320,2013-03-26 01:15:00
8:35 PM,28.9,28.9,100,30.31,10.0,NW,10.4,17.3,N/A,,Overcast,320,2013-03-26 01:35:00
8:55 PM,28.9,28.9,100,30.31,10.0,NNW,6.9,16.1,N/A,,Overcast,330,2013-03-26 01:55:00
9:15 PM,28.4,28.4,100,30.32,10.0,NNW,11.5,17.3,N/A,,Mostly Cloudy,330,2013-03-26 02:15:00
9:35 PM,28.2,28.2,100,30.32,10.0,NW,8.1,-,N/A,,Scattered Clouds,320,2013-03-26 02:35:00
9:55 PM,27.9,27.9,100,30.33,10.0,NW,8.1,-,N/A,,Clear,320,2013-03-26 02:55:00
10:15 PM,27.3,27.3,100,30.33,10.0,NW,9.2,-,N/A,,Clear,310,2013-03-26 03:15:00
10:35 PM,26.8,26.8,100,30.34,10.0,NW,9.2,-,N/A,,Clear,310,2013-03-26 03:35:00
10:55 PM,26.6,26.6,100,30.34,10.0,NW,8.1,-,N/A,,Clear,310,2013-03-26 03:55:00
11:15 PM,26.4,26.4,100,30.34,10.0,NW,6.9,-,N/A,,Mostly Cloudy,310,2013-03-26 04:15:00
11:35 PM,26.2,26.2,100,30.34,10.0,NW,8.1,-,N/A,,Mostly Cloudy,310,2013-03-26 04:35:00
11:55 PM,25.7,25.7,100,30.35,10.0,NW,6.9,-,N/A,,Scattered Clouds,310,2013-03-26 04:55:00